DLH180 EDDF-EDDB

Flight info

Callsign DLH180
Flight time 0h 53m
Altitude 31000
Route TOBAK3W/25C TOBAK N858 SWALM T201 TAMEB T278 KLF KLF06L
Aircraft A21N/L-V/N

Departure

Time 2026-04-18 10:45
Airport Frankfurt Main Airport (EDDF)

Arrival

Time 2026-04-18 11:38
Airport Berlin Brandenburg Airport (EDDB)
Time Latitude Longitude Altitude Speed Heading
2026-04-18 10:01 50.04458 8.56427 366 ft 0 kts 155°
2026-04-18 10:33 50.04462 8.56423 367 ft 2 kts 156°
2026-04-18 10:33 50.04476 8.56416 367 ft 2 kts 169°
2026-04-18 10:33 50.04491 8.56413 367 ft 2 kts 177°
2026-04-18 10:33 50.04501 8.56413 367 ft 2 kts 184°
2026-04-18 10:34 50.04520 8.56417 368 ft 2 kts 196°
2026-04-18 10:34 50.04533 8.56424 368 ft 2 kts 205°
2026-04-18 10:34 50.04543 8.56431 368 ft 0 kts 208°
2026-04-18 10:36 50.04536 8.56425 368 ft 2 kts 214°
2026-04-18 10:36 50.04517 8.56388 367 ft 6 kts 250°
2026-04-18 10:36 50.04497 8.56303 366 ft 10 kts 250°
2026-04-18 10:37 50.04470 8.56190 365 ft 12 kts 250°
2026-04-18 10:37 50.04442 8.56071 365 ft 9 kts 247°
2026-04-18 10:37 50.04386 8.56030 364 ft 11 kts 164°
2026-04-18 10:37 50.04313 8.56074 362 ft 8 kts 150°
2026-04-18 10:38 50.04292 8.56162 362 ft 10 kts 90°
2026-04-18 10:38 50.04246 8.56236 361 ft 11 kts 161°
2026-04-18 10:38 50.04207 8.56259 360 ft 0 kts 159°
2026-04-18 10:39 50.04176 8.56277 360 ft 9 kts 160°
2026-04-18 10:39 50.04147 8.56357 359 ft 12 kts 75°
2026-04-18 10:40 50.04179 8.56495 360 ft 15 kts 70°
2026-04-18 10:40 50.04217 8.56656 361 ft 17 kts 70°
2026-04-18 10:40 50.04256 8.56820 366 ft 16 kts 70°
2026-04-18 10:40 50.04295 8.56981 368 ft 17 kts 69°
2026-04-18 10:41 50.04339 8.57163 369 ft 19 kts 70°
2026-04-18 10:41 50.04385 8.57357 370 ft 20 kts 70°
2026-04-18 10:41 50.04438 8.57579 368 ft 23 kts 70°
2026-04-18 10:41 50.04494 8.57813 372 ft 23 kts 70°
2026-04-18 10:42 50.04535 8.57985 375 ft 15 kts 70°
2026-04-18 10:42 50.04568 8.58127 376 ft 6 kts 71°
2026-04-18 10:42 50.04554 8.58198 377 ft 9 kts 139°
2026-04-18 10:42 50.04483 8.58245 375 ft 14 kts 160°
2026-04-18 10:43 50.04413 8.58260 374 ft 8 kts 226°
2026-04-18 10:43 50.04398 8.58216 374 ft 0 kts 250°
2026-04-18 10:44 50.04365 8.58077 373 ft 43 kts 250°
2026-04-18 10:44 50.04184 8.57323 364 ft 110 kts 250°
2026-04-18 10:44 50.03844 8.55918 349 ft 165 kts 250°
2026-04-18 10:45 50.03437 8.54180 812 ft 171 kts 251°
2026-04-18 10:45 50.03043 8.52451 1426 ft 174 kts 250°
2026-04-18 10:45 50.02590 8.50659 1924 ft 185 kts 244°
2026-04-18 10:45 50.01796 8.49102 2521 ft 188 kts 220°
2026-04-18 10:46 50.00670 8.48122 3025 ft 189 kts 198°
2026-04-18 10:46 49.99437 8.47743 3495 ft 191 kts 189°
2026-04-18 10:46 49.98114 8.47486 4008 ft 193 kts 188°
2026-04-18 10:46 49.96788 8.47231 4525 ft 194 kts 190°
2026-04-18 10:47 49.95478 8.46805 5045 ft 195 kts 197°
2026-04-18 10:47 49.94178 8.46230 5579 ft 195 kts 198°
2026-04-18 10:47 49.92884 8.45628 6111 ft 196 kts 201°
2026-04-18 10:47 49.91732 8.44583 6630 ft 195 kts 224°
2026-04-18 10:48 49.90937 8.42916 7159 ft 195 kts 246°
2026-04-18 10:48 49.90602 8.40918 7677 ft 196 kts 266°
2026-04-18 10:48 49.90766 8.38847 8186 ft 198 kts 287°
2026-04-18 10:48 49.91424 8.36995 8711 ft 200 kts 308°
2026-04-18 10:49 49.92497 8.35640 9236 ft 204 kts 329°
2026-04-18 10:49 49.93817 8.34710 9616 ft 215 kts 334°
2026-04-18 10:49 49.95213 8.33836 9891 ft 228 kts 335°
2026-04-18 10:49 49.96583 8.32980 10182 ft 239 kts 334°
2026-04-18 10:50 49.98217 8.31942 10570 ft 250 kts 334°
2026-04-18 10:50 49.99792 8.30934 11326 ft 245 kts 334°
2026-04-18 10:50 50.01335 8.29934 11803 ft 251 kts 333°
2026-04-18 10:50 50.02987 8.28855 12209 ft 261 kts 334°
2026-04-18 10:51 50.04726 8.28151 12755 ft 270 kts 353°
2026-04-18 10:51 50.06596 8.28536 13363 ft 278 kts 12°
2026-04-18 10:51 50.08393 8.29465 13962 ft 280 kts 14°
2026-04-18 10:51 50.10217 8.30465 14515 ft 283 kts 14°
2026-04-18 10:52 50.12081 8.31480 15070 ft 286 kts 14°
2026-04-18 10:52 50.13930 8.32473 15612 ft 288 kts 14°
2026-04-18 10:52 50.15812 8.33474 16152 ft 290 kts 14°
2026-04-18 10:52 50.17685 8.34463 16665 ft 293 kts 14°
2026-04-18 10:53 50.19588 8.35467 17183 ft 296 kts 14°
2026-04-18 10:53 50.21528 8.36487 17684 ft 298 kts 14°
2026-04-18 10:53 50.23471 8.37510 18180 ft 301 kts 14°
2026-04-18 10:53 50.25449 8.38552 18694 ft 303 kts 14°
2026-04-18 10:54 50.27414 8.39596 19154 ft 306 kts 16°
2026-04-18 10:54 50.29327 8.41027 19591 ft 313 kts 27°
2026-04-18 10:54 50.31072 8.43034 20059 ft 318 kts 37°
2026-04-18 10:54 50.32731 8.45323 20518 ft 321 kts 38°
2026-04-18 10:55 50.34386 8.47679 20943 ft 324 kts 39°
2026-04-18 10:55 50.36026 8.50006 21349 ft 327 kts 38°
2026-04-18 10:55 50.37730 8.52405 21754 ft 330 kts 38°
2026-04-18 10:55 50.39426 8.54779 22164 ft 333 kts 38°
2026-04-18 10:56 50.41122 8.57144 22551 ft 336 kts 38°
2026-04-18 10:56 50.42884 8.59599 22951 ft 339 kts 38°
2026-04-18 10:56 50.44611 8.62004 23329 ft 342 kts 38°
2026-04-18 10:56 50.46417 8.64422 23703 ft 345 kts 37°
2026-04-18 10:57 50.48244 8.66806 24054 ft 348 kts 37°
2026-04-18 10:57 50.50112 8.69242 24432 ft 351 kts 37°
2026-04-18 10:57 50.51978 8.71689 24799 ft 354 kts 37°
2026-04-18 10:57 50.53849 8.74152 25161 ft 356 kts 37°
2026-04-18 10:58 50.55725 8.76662 25514 ft 360 kts 40°
2026-04-18 10:58 50.57402 8.79520 25848 ft 365 kts 51°
2026-04-18 10:58 50.58774 8.82808 26189 ft 368 kts 58°
2026-04-18 10:58 50.60004 8.86328 26548 ft 370 kts 60°
2026-04-18 10:59 50.61212 8.89909 26860 ft 373 kts 60°
2026-04-18 10:59 50.62403 8.93424 27173 ft 376 kts 60°
2026-04-18 10:59 50.63640 8.97043 27506 ft 378 kts 60°
2026-04-18 10:59 50.64891 9.00680 27826 ft 380 kts 59°
2026-04-18 11:00 50.66142 9.04300 28138 ft 382 kts 59°
2026-04-18 11:00 50.67389 9.07911 28454 ft 384 kts 59°
2026-04-18 11:00 50.68659 9.11591 28765 ft 386 kts 59°
2026-04-18 11:00 50.69922 9.15257 29069 ft 389 kts 60°
2026-04-18 11:01 50.71103 9.19094 29356 ft 392 kts 65°
2026-04-18 11:01 50.72062 9.23039 29660 ft 395 kts 70°
2026-04-18 11:01 50.72812 9.27184 29955 ft 397 kts 75°
2026-04-18 11:02 50.74057 9.35561 30521 ft 402 kts 76°
2026-04-18 11:02 50.74687 9.39866 30789 ft 404 kts 75°
2026-04-18 11:02 50.75319 9.44141 31061 ft 407 kts 75°
2026-04-18 11:02 50.75961 9.48455 31132 ft 415 kts 75°
2026-04-18 11:03 50.77296 9.57419 31142 ft 433 kts 76°
2026-04-18 11:03 50.78682 9.66784 31140 ft 450 kts 76°
2026-04-18 11:04 50.80124 9.76533 31136 ft 465 kts 76°
2026-04-18 11:04 50.81601 9.86573 31135 ft 478 kts 76°
2026-04-18 11:05 50.83072 9.96723 31131 ft 479 kts 77°
2026-04-18 11:05 50.84027 10.07047 31132 ft 480 kts 85°
2026-04-18 11:06 50.84111 10.17546 31127 ft 481 kts 93°
2026-04-18 11:06 50.83530 10.27998 31133 ft 481 kts 95°
2026-04-18 11:07 50.82883 10.38434 31124 ft 480 kts 95°
2026-04-18 11:07 50.82256 10.48897 31129 ft 480 kts 95°
2026-04-18 11:08 50.82046 10.52398 31132 ft 480 kts 95°
2026-04-18 11:09 50.85999 10.88749 31143 ft 475 kts 59°
2026-04-18 11:10 50.89160 10.97884 31146 ft 475 kts 59°
2026-04-18 11:10 50.92254 11.06988 31146 ft 475 kts 60°
2026-04-18 11:11 50.95350 11.16236 31147 ft 475 kts 60°
2026-04-18 11:11 50.98409 11.25421 31148 ft 475 kts 60°
2026-04-18 11:12 51.01481 11.34666 31143 ft 474 kts 60°
2026-04-18 11:12 51.04523 11.43875 31150 ft 474 kts 60°
2026-04-18 11:13 51.07553 11.53074 31147 ft 473 kts 60°
2026-04-18 11:13 51.09085 11.57743 30954 ft 474 kts 60°
2026-04-18 11:13 51.10594 11.62356 30687 ft 471 kts 60°
2026-04-18 11:14 51.12096 11.66956 30075 ft 471 kts 61°
2026-04-18 11:14 51.13596 11.71548 29339 ft 472 kts 61°
2026-04-18 11:14 51.15070 11.76074 28611 ft 472 kts 61°
2026-04-18 11:14 51.16579 11.80728 27840 ft 472 kts 61°
2026-04-18 11:15 51.18061 11.85307 27124 ft 470 kts 61°
2026-04-18 11:15 51.19542 11.89806 26646 ft 462 kts 59°
2026-04-18 11:15 51.21173 11.93975 26166 ft 455 kts 53°
2026-04-18 11:15 51.23018 11.97840 25686 ft 448 kts 48°
2026-04-18 11:16 51.25022 12.01391 25219 ft 442 kts 45°
2026-04-18 11:16 51.27008 12.04722 24744 ft 437 kts 44°
2026-04-18 11:16 51.29035 12.08088 24263 ft 432 kts 44°
2026-04-18 11:16 51.31018 12.11391 23785 ft 428 kts 44°
2026-04-18 11:17 51.32989 12.14690 23312 ft 424 kts 44°
2026-04-18 11:17 51.34953 12.17992 22834 ft 419 kts 45°
2026-04-18 11:17 51.36858 12.21205 22364 ft 416 kts 45°
2026-04-18 11:17 51.38752 12.24406 21881 ft 413 kts 45°
2026-04-18 11:18 51.40580 12.27504 21413 ft 409 kts 45°
2026-04-18 11:18 51.42540 12.30830 20921 ft 406 kts 45°
2026-04-18 11:18 51.44437 12.34052 20429 ft 403 kts 45°
2026-04-18 11:18 51.46292 12.37211 19934 ft 401 kts 45°
2026-04-18 11:19 51.48103 12.40296 19457 ft 399 kts 45°
2026-04-18 11:19 51.49932 12.43419 18978 ft 396 kts 45°
2026-04-18 11:19 51.51733 12.46498 18505 ft 394 kts 45°
2026-04-18 11:19 51.53580 12.49656 18006 ft 393 kts 45°
2026-04-18 11:20 51.55429 12.52824 17516 ft 391 kts 45°
2026-04-18 11:20 51.57240 12.55931 17034 ft 389 kts 45°
2026-04-18 11:20 51.59043 12.59030 16550 ft 387 kts 45°
2026-04-18 11:20 51.60836 12.62112 16065 ft 386 kts 45°
2026-04-18 11:21 51.62625 12.65194 15568 ft 384 kts 46°
2026-04-18 11:21 51.64436 12.68316 15079 ft 382 kts 46°
2026-04-18 11:21 51.66234 12.71422 14583 ft 380 kts 46°
2026-04-18 11:21 51.68027 12.74524 14084 ft 378 kts 46°
2026-04-18 11:22 51.69782 12.77563 13600 ft 376 kts 46°
2026-04-18 11:22 51.71556 12.80641 13112 ft 374 kts 45°
2026-04-18 11:22 51.73312 12.83690 12625 ft 371 kts 45°
2026-04-18 11:22 51.74487 12.85730 12302 ft 369 kts 45°
2026-04-18 11:23 51.76831 12.89635 11660 ft 365 kts 39°
2026-04-18 11:23 51.78927 12.91859 11171 ft 359 kts 24°
2026-04-18 11:23 51.81233 12.93215 10840 ft 348 kts 14°
2026-04-18 11:23 51.83488 12.94217 10605 ft 325 kts 13°
2026-04-18 11:24 51.85587 12.95112 10475 ft 300 kts 12°
2026-04-18 11:24 51.87535 12.95948 10378 ft 285 kts 12°
2026-04-18 11:24 51.89434 12.96769 10286 ft 279 kts 12°
2026-04-18 11:24 51.91291 12.97580 10200 ft 274 kts 13°
2026-04-18 11:25 51.93108 12.98380 9977 ft 273 kts 13°
2026-04-18 11:25 51.94920 12.99182 9607 ft 273 kts 13°
2026-04-18 11:25 51.96727 12.99985 9264 ft 272 kts 13°
2026-04-18 11:25 51.98544 13.00796 8932 ft 270 kts 13°
2026-04-18 11:26 52.00330 13.01594 8608 ft 267 kts 13°
2026-04-18 11:26 52.02121 13.02396 8283 ft 264 kts 13°
2026-04-18 11:26 52.03857 13.03176 7966 ft 261 kts 13°
2026-04-18 11:26 52.05597 13.03957 7643 ft 258 kts 14°
2026-04-18 11:27 52.07299 13.04721 7330 ft 256 kts 14°
2026-04-18 11:27 52.08984 13.05480 7018 ft 253 kts 14°
2026-04-18 11:27 52.10663 13.06236 6712 ft 250 kts 14°
2026-04-18 11:27 52.12344 13.06995 6403 ft 248 kts 14°
2026-04-18 11:28 52.13986 13.07736 6096 ft 245 kts 14°
2026-04-18 11:28 52.15607 13.08467 5796 ft 243 kts 14°
2026-04-18 11:28 52.17239 13.09204 5490 ft 241 kts 14°
2026-04-18 11:28 52.18821 13.09918 5188 ft 237 kts 14°
2026-04-18 11:29 52.20385 13.10624 4890 ft 228 kts 15°
2026-04-18 11:29 52.21890 13.11304 4623 ft 222 kts 15°
2026-04-18 11:29 52.23370 13.11977 4357 ft 221 kts 17°
2026-04-18 11:29 52.24805 13.12765 4273 ft 218 kts 21°
2026-04-18 11:30 52.26196 13.13735 4035 ft 217 kts 25°
2026-04-18 11:30 52.27569 13.14784 3977 ft 219 kts 25°
2026-04-18 11:30 52.28828 13.16091 4006 ft 212 kts 47°
2026-04-18 11:30 52.29565 13.18046 3917 ft 198 kts 64°
2026-04-18 11:31 52.30096 13.20061 3685 ft 190 kts 68°
2026-04-18 11:31 52.30297 13.21998 3793 ft 162 kts 104°
2026-04-18 11:31 52.29692 13.23358 4366 ft 147 kts 152°
2026-04-18 11:31 52.28681 13.23598 4584 ft 159 kts 195°
2026-04-18 11:32 52.27784 13.22565 4452 ft 160 kts 235°
2026-04-18 11:32 52.27226 13.21018 4142 ft 159 kts 243°
2026-04-18 11:32 52.26736 13.19389 3975 ft 161 kts 244°
2026-04-18 11:32 52.26329 13.17692 3968 ft 163 kts 264°
2026-04-18 11:33 52.26688 13.16028 3946 ft 162 kts 322°
2026-04-18 11:33 52.27730 13.15485 3981 ft 161 kts
2026-04-18 11:33 52.28714 13.16278 3981 ft 160 kts 47°
2026-04-18 11:33 52.29334 13.17748 3954 ft 160 kts 62°
2026-04-18 11:34 52.29818 13.19375 3767 ft 160 kts 65°
2026-04-18 11:34 52.30272 13.21035 3558 ft 159 kts 67°
2026-04-18 11:34 52.30700 13.22708 3349 ft 159 kts 68°
2026-04-18 11:34 52.31104 13.24365 3145 ft 158 kts 69°
2026-04-18 11:35 52.31975 13.28055 2690 ft 157 kts 70°
2026-04-18 11:35 52.32690 13.31116 2312 ft 155 kts 70°
2026-04-18 11:35 52.33075 13.32773 2132 ft 152 kts 70°
2026-04-18 11:35 52.33438 13.34333 1928 ft 145 kts 70°
2026-04-18 11:36 52.33796 13.35863 1730 ft 143 kts 70°
2026-04-18 11:36 52.34148 13.37364 1542 ft 142 kts 70°
2026-04-18 11:36 52.34502 13.38871 1359 ft 142 kts 70°
2026-04-18 11:36 52.34848 13.40342 1177 ft 142 kts 70°
2026-04-18 11:37 52.35203 13.41850 993 ft 142 kts 70°
2026-04-18 11:37 52.35551 13.43326 809 ft 141 kts 70°
2026-04-18 11:37 52.35904 13.44823 625 ft 141 kts 70°
2026-04-18 11:37 52.36250 13.46280 447 ft 140 kts 70°
2026-04-18 11:38 52.36599 13.47778 268 ft 140 kts 70°
2026-04-18 11:38 52.36946 13.49235 146 ft 135 kts 69°
2026-04-18 11:38 52.37186 13.50258 143 ft 56 kts 68°
2026-04-18 11:38 52.37303 13.50809 146 ft 44 kts 84°
2026-04-18 11:39 52.37294 13.51129 149 ft 19 kts 98°
2026-04-18 11:39 52.37285 13.51214 150 ft 6 kts 98°
2026-04-18 11:39 52.37278 13.51291 151 ft 8 kts 99°
2026-04-18 11:39 52.37248 13.51378 151 ft 9 kts 144°
2026-04-18 11:40 52.37188 13.51426 152 ft 9 kts 158°
2026-04-18 11:40 52.37119 13.51470 153 ft 12 kts 158°
2026-04-18 11:40 52.37047 13.51459 153 ft 11 kts 225°
2026-04-18 11:40 52.37011 13.51331 153 ft 13 kts 248°
2026-04-18 11:41 52.36974 13.51171 150 ft 16 kts 248°
2026-04-18 11:41 52.36931 13.50993 148 ft 18 kts 248°
2026-04-18 11:41 52.36881 13.50784 145 ft 20 kts 248°
2026-04-18 11:41 52.36841 13.50613 143 ft 9 kts 249°
2026-04-18 11:42 52.36822 13.50540 143 ft 4 kts 226°
2026-04-18 11:42 52.36789 13.50539 143 ft 5 kts 158°
2026-04-18 11:42 52.36771 13.50550 143 ft 1 kts 158°
2026-04-18 11:42 52.36757 13.50559 143 ft 2 kts 158°
2026-04-18 11:43 52.36747 13.50566 143 ft 0 kts 158°